This demonstration page uses our WeatherBlox Daily Observations layout. Learn more.

Left ArrowRight Arrow

39.01783, -85.05884

Hourly Observations for February 17, 2020

Temp ( °F °C ) Dew Point ( °F °C ) Humidity (%) Winds ( mph kmh ) Pressure ( in mb ) Visibility ( mi km ) Precip ( " mm )
12:52 am 00:52 Mostly Clear 36 2.2 26 -3.3 67 67 ENE 5 7 30.13 1020 10 16.0934 0 0
1:52 am 01:52 Mostly Clear 33 0.6 26 -3.3 75 75 E 8 13 30.13 1020 10 16.0934 0 0
2:52 am 02:52 Mostly Clear 32 0 26 -3.3 79 79 E 7 11 30.14 1021 10 16.0934 0 0
3:52 am 03:52 Mostly Clear 31 -0.6 25 -3.9 79 79 E 6 9 30.13 1020 10 16.0934 0 0
4:52 am 04:52 Mostly Clear 31 -0.6 25 -3.9 79 79 E 6 9 30.14 1021 9 14.48406 0 0
5:52 am 05:52 Mostly Clear 30 -1.1 25 -3.9 82 82 E 7 11 30.14 1021 9 14.48406 0 0
6:52 am 06:52 Partly Cloudy 31 -0.6 26 -3.3 82 82 E 6 9 30.14 1021 8 12.87472 0 0
7:52 am 07:52 Mostly Cloudy 32 0 27 -2.8 82 82 E 5 7 30.17 1022 7 11.26538 0 0
8:52 am 08:52 Mostly Cloudy 34 1.1 28 -2.2 79 79 E 8 13 30.18 1022 7 11.26538 0 0
9:52 am 09:52 Cloudy 37 2.8 29 -1.7 73 73 E 12 19 30.16 1021 8 12.87472 0 0
10:52 am 10:52 Cloudy 40 4.4 30 -1.1 68 68 ESE 9 15 30.15 1021 9 14.48406 0 0
11:52 am 11:52 Mostly Cloudy 46 7.8 32 0 58 58 SE 16 26 30.13 1020 10 16.0934 0 0
12:52 pm 12:52 Cloudy 48 8.9 32 0 54 54 SE 15 24 30.1 1019 10 16.0934 0 0
1:52 pm 13:52 Mostly Cloudy 49 9.4 33 0.6 55 55 SE 13 20 30.05 1018 10 16.0934 0 0
2:52 pm 14:52 Cloudy 50 10 34 1.1 54 54 SE 12 19 30.03 1017 10 16.0934 0 0
3:52 pm 15:52 Cloudy 50 10 34 1.1 54 54 SE 12 19 30.02 1017 10 16.0934 0 0
4:52 pm 16:52 Cloudy 51 10.6 35 1.7 54 54 ESE 12 19 30 1016 10 16.0934 0 0
5:52 pm 17:52 Cloudy 50 10 35 1.7 57 57 ESE 12 19 29.98 1015 10 16.0934 0 0
6:52 pm 18:52 Cloudy 49 9.4 35 1.7 59 59 ESE 8 13 29.96 1015 10 16.0934 0 0
7:52 pm 19:52 Cloudy 48 8.9 35 1.7 61 61 ESE 7 11 29.96 1015 10 16.0934 0 0
8:52 pm 20:52 Cloudy 49 9.4 36 2.2 61 61 SE 9 15 29.93 1014 10 16.0934 0 0
9:52 pm 21:52 Cloudy 49 9.4 36 2.2 61 61 SSE 13 20 29.91 1013 10 16.0934 0 0
10:52 pm 22:52 Cloudy 49 9.4 36 2.2 61 61 SSE 12 19 29.89 1012 10 16.0934 0 0
11:52 pm 23:52 Cloudy 51 10.6 37 2.8 59 59 S 14 22 29.89 1012 10 16.0934 0 0

Powered by AerisWeather